Location: Rounton
(54.4000°N, 1.3500°W)
Time: 05:19:17
(UTC+00:00)

Vanguard 1 - Pass Details

Date: 04 December 2021
Orbit: 652 x 3830 km, 34.2° (Epoch: 17 January)

Event Time Altitude Azimuth Distance (km) Brightness Sun altitude
Exits shadow 05:28:52 18° 249° (WSW) 5,728 13.4 -21.8°
Maximum altitude 05:37:44 25° 218° (SW) 4,621 13.2 -20.5°
Drops below altitude 10° 05:48:27 10° 169° (S) 4,751 13.8 -19.0°
Sets 05:52:21 0° 157° (SSE) 5,301 14.3 -18.4°
